This is the latest recevied weather packets stored in our database for station/object NE1CU. If no packets are shown the sender has not sent any weather packets the latest 10 day(s).
| Time | Temp. | Humidity | Pressure | Rain* | Wind** | Luminosity | Snow |
|---|---|---|---|---|---|---|---|
| 1777557670 | 10° C | 95% | 1007.6 hPa | 0 mm | - | 52 W/m² | - |
| 1777557367 | 10° C | 95% | 1007.5 hPa | 0 mm | - | 54 W/m² | - |
| 1777557063 | 10° C | 95% | 1007.5 hPa | 0 mm | - | 71 W/m² | - |
| 1777556758 | 9.44° C | 95% | 1007.4 hPa | 0 mm | - | 73 W/m² | - |
| 1777556456 | 9.44° C | 95% | 1007.4 hPa | 0 mm | - | 71 W/m² | - |
| 1777556155 | 9.44° C | 95% | 1007.3 hPa | 0 mm | - | 73 W/m² | - |
| 1777555851 | 9.44° C | 95% | 1007.5 hPa | 0 mm | - | 70 W/m² | - |
| 1777555547 | 9.44° C | 95% | 1007.4 hPa | 0 mm | - | 92 W/m² | - |
| 1777555244 | 9.44° C | 95% | 1007.5 hPa | 0 mm | - | 69 W/m² | - |
| 1777554940 | 9.44° C | 95% | 1007.6 hPa | 0 mm | - | 59 W/m² | - |
| 1777554637 | 9.44° C | 95% | 1007.7 hPa | 0 mm | - | 59 W/m² | - |
| 1777554334 | 9.44° C | 96% | 1007.5 hPa | 0 mm | - | 60 W/m² | - |
| 1777554031 | 10° C | 96% | 1007.6 hPa | 0 mm | - | 39 W/m² | - |
| 1777553727 | 9.44° C | 96% | 1007.5 hPa | 0 mm | - | 58 W/m² | - |
| 1777553424 | 9.44° C | 96% | 1007.4 hPa | 0 mm | - | 53 W/m² | - |
| 1777553121 | 9.44° C | 96% | 1007.3 hPa | 0 mm | - | 66 W/m² | - |
| 1777552820 | 9.44° C | 96% | 1007.2 hPa | 0 mm | - | 68 W/m² | - |
| 1777552516 | 9.44° C | 96% | 1007.4 hPa | 0 mm | - | 47 W/m² | - |
| 1777552212 | 9.44° C | 96% | 1007.5 hPa | 0 mm | - | 64 W/m² | - |
| 1777551909 | 9.44° C | 96% | 1007.4 hPa | 0 mm | - | 60 W/m² | - |
| 1777551607 | 9.44° C | 96% | 1007.8 hPa | 0 mm | - | 43 W/m² | - |
| 1777551304 | 9.44° C | 96% | 1007.7 hPa | 0 mm | - | 30 W/m² | - |
| 1777551001 | 9.44° C | 96% | 1007.7 hPa | 0 mm | - | 45 W/m² | - |
| 1777550697 | 9.44° C | 96% | 1007.9 hPa | 1.78 mm | - | 47 W/m² | - |
| 1777550393 | 9.44° C | 96% | 1008 hPa | 1.78 mm | - | 41 W/m² | - |
* Rain latest hour (hover to see other rain measurements)
** Current wind speed in m/s (hover to see current wind gust speed)